Flag for Sao Tome and Principe Weather past 2 weeks in São Tomé, Sao Tome and Principe

Now
38 °F

Chilly.


Feels Like: 31 °F
Forecast: 79 / 86 °F
Wind: 9 mph from West

Location: Neuchatel

Current Time: Mar 1, 2015 at 3:26:12 AM

Latest Report: Mar 1, 2015 at 2:00 AM


Visibility: N/A

Pressure: 30.02 "Hg

Humidity: 75%

Dew point: 30 °F

Location of São ToméLocation

Historic Weather in São Tomé — Graph

°F

São Tomé temperature yesterday

Maximum temperature yesterday: 42 °F (at 3:00 PM)
Minimum temperature yesterday: 35 °F (at 6:00 AM)
Average temperature yesterday: 37 °F

Past Weeks' High & Low Weather Summary

 TemperatureHumidityPressure
High51 °F (Feb 20, 3:00 PM)100% (Feb 20, 5:00 AM)30.72 "Hg (Feb 20, 5:00 AM)
Low28 °F (Feb 20, 6:00 AM)37% (Feb 20, 3:00 PM)29.61 "Hg (Feb 21, 8:00 AM)
Average36 °F82%30.08 "Hg
* Reported Feb 14 2:00 AM — Mar 1 2:00 AM, São Tomé, Weather by CustomWeather, © 2015

Note: Actual official high and low records may vary slightly from our data, if they occured in-between our weather recording intervals... More about our weather records

Advertising

São Tomé weather history for previous 24 hours

 ConditionsComfort  
Time TempWeatherWind HumidityBarometerVisibility
2:00 AM
Sun, Mar 1
38 °FChilly.9 mph75%30.02 "HgN/A
1:00 AM37 °FChilly.6 mph78%30.05 "HgN/A
12:00 AM36 °FChilly.7 mph80%30.07 "HgN/A
11:00 PM
Sat, Feb 28
36 °FChilly.7 mph80%30.09 "HgN/A
10:00 PM36 °FChilly.2 mph78%30.10 "HgN/A
9:00 PM35 °FChilly.3 mph77%30.12 "HgN/A
8:00 PM35 °FChilly.3 mph74%30.14 "HgN/A
7:00 PM35 °FChilly.3 mph76%30.14 "HgN/A
6:00 PM36 °FChilly.3 mph74%30.13 "HgN/A
5:00 PM40 °FChilly.2 mph64%30.11 "HgN/A
4:00 PM41 °FQuite cool.3 mph61%30.11 "HgN/A
3:00 PM42 °FQuite cool.3 mph64%30.12 "HgN/A
2:00 PM41 °FQuite cool.3 mph65%30.13 "HgN/A
1:00 PM41 °FQuite cool.3 mph68%30.14 "HgN/A
12:00 PM40 °FQuite cool.5 mph68%30.16 "HgN/A
11:00 AM40 °FQuite cool.10 mph70%30.18 "HgN/A
10:00 AM38 °FChilly.8 mph81%30.19 "HgN/A
9:00 AM36 °FChilly.3 mph88%30.21 "HgN/A
8:00 AM36 °FChilly.2 mph91%30.21 "HgN/A
7:00 AM35 °FChilly.3 mph93%30.21 "HgN/A
6:00 AM35 °FChilly.2 mph88%30.20 "HgN/A
5:00 AM35 °FChilly.2 mph88%30.19 "HgN/A
4:00 AM36 °FChilly.3 mph82%30.18 "HgN/A
Weather by CustomWeather, © 2015

See weather overviewHow to use our weather pages